Flag Weather past 2 weeks in Abidjan, Cote d'Ivoire (Ivory Coast)

Now
81 °F

Passing clouds.


Feels Like: 87 °F
Forecast: N/A
Wind: 7 mph from Southwest

Location: Abidjan Airport

Current Time: Nov 26, 2014 at 11:33:01 PM

Latest Report: Nov 26, 2014 at 11:00 PM


Visibility: N/A

Pressure: 29.86 "Hg

Humidity: 89%

Dew point: 77 °F

Location of AbidjanLocation

Historic Weather in Abidjan — Graph

°F

Abidjan temperature yesterday

Maximum temperature yesterday: 86 °F (at 12:00 PM)
Minimum temperature yesterday: 75 °F (at 12:00 AM)
Average temperature yesterday: 80 °F

Past Weeks' High & Low Weather Summary

 TemperatureHumidityPressure
High88 °F (Nov 16, 2:00 PM)100% (Nov 12, 3:00 AM)29.92 "Hg (Nov 12, 3:00 AM)
Low73 °F (Nov 12, 3:00 AM)66% (Nov 16, 2:00 PM)29.74 "Hg (Nov 16, 3:30 PM)
Average82 °F84%29.84 "Hg
* Reported Nov 11 10:00 PM — Nov 26 10:30 PM, Abidjan, Weather by CustomWeather, © 2014

Note: Actual official high and low records may vary slightly from our data, if they occured in-between our weather recording intervals... More about our weather records

Advertising

Abidjan weather history for previous 24 hours

 ConditionsComfort  
Time TempWeatherWind HumidityBarometerVisibility
10:30 PM
Nov 26
82 °FPassing clouds.7 mph79%29.86 "HgN/A
10:00 PM82 °FPassing clouds.9 mph79%29.86 "HgN/A
9:30 PM82 °FPassing clouds.8 mph84%29.86 "HgN/A
9:00 PM82 °FPassing clouds.9 mph84%29.86 "HgN/A
8:30 PM82 °FThunderstorms. Passing clouds.9 mph84%29.86 "HgN/A
8:00 PM82 °FThunderstorms. Passing clouds.10 mph84%29.86 "HgN/A
7:30 PM82 °FThunderstorms. Passing clouds.9 mph84%29.83 "HgN/A
7:00 PM82 °FThunderstorms. Passing clouds.12 mph84%29.83 "HgN/A
6:30 PM82 °FPartly cloudy.13 mph84%29.80 "HgN/A
6:00 PM82 °FPassing clouds.12 mph84%29.80 "HgN/A
5:30 PM84 °FScattered clouds.12 mph79%29.80 "HgN/A
5:00 PM84 °FScattered clouds.13 mph79%29.80 "HgN/A
4:30 PM84 °FScattered clouds.13 mph79%29.77 "HgN/A
4:00 PM84 °FScattered clouds.13 mph79%29.77 "HgN/A
3:30 PM86 °FScattered clouds.13 mph75%29.77 "HgN/A
3:00 PM86 °FScattered clouds.14 mph79%29.77 "HgN/A
2:30 PM86 °FScattered clouds.14 mph75%29.77 "HgN/A
2:00 PM86 °FScattered clouds.15 mph75%29.77 "HgN/A
1:30 PM86 °FScattered clouds.14 mph75%29.80 "HgN/A
1:00 PM86 °FScattered clouds.13 mph75%29.80 "HgN/A
12:30 PM86 °FScattered clouds.12 mph75%29.80 "HgN/A
12:00 PM86 °FScattered clouds.13 mph75%29.83 "HgN/A
11:30 AM86 °FScattered clouds.12 mph75%29.83 "HgN/A
11:00 AM86 °FPartly sunny.10 mph75%29.83 "HgN/A
10:30 AM84 °FScattered clouds.10 mph79%29.86 "HgN/A
10:00 AM86 °FScattered clouds.12 mph79%29.86 "HgN/A
9:30 AM84 °FScattered clouds.10 mph79%29.86 "HgN/A
9:00 AM84 °FScattered clouds.9 mph79%29.86 "HgN/A
8:30 AM84 °FScattered clouds.9 mph79%29.86 "HgN/A
8:00 AM84 °FScattered clouds.8 mph79%29.86 "HgN/A
7:30 AM82 °FScattered clouds.6 mph84%29.86 "Hg5 mi
7:00 AM81 °FScattered clouds.7 mph89%29.83 "Hg5 mi
6:30 AM81 °FScattered clouds.7 mph89%29.83 "Hg5 mi
6:00 AM81 °FPassing clouds.7 mph89%29.80 "Hg5 mi
5:30 AM81 °FPassing clouds.6 mph89%29.80 "Hg5 mi
5:00 AM81 °FPassing clouds.6 mph89%29.80 "Hg5 mi
4:30 AM79 °FPassing clouds.6 mph94%29.80 "Hg5 mi
4:00 AM79 °FPassing clouds.6 mph94%29.80 "Hg5 mi
3:30 AM79 °FPassing clouds.6 mph94%29.80 "Hg5 mi
3:00 AM79 °FPassing clouds.6 mph94%29.80 "Hg5 mi
2:30 AM81 °FPassing clouds.5 mph84%29.83 "Hg5 mi
2:00 AM79 °FPassing clouds.3 mph89%29.83 "Hg5 mi
1:30 AM81 °FPassing clouds.6 mph84%29.86 "Hg5 mi
1:00 AM81 °FPassing clouds.7 mph89%29.86 "Hg5 mi
12:30 AM81 °FPassing clouds.6 mph89%29.86 "Hg5 mi
12:00 AM81 °FPassing clouds.5 mph89%29.89 "Hg5 mi
11:30 PM
Nov 25
81 °FPassing clouds.5 mph89%29.89 "Hg5 mi
11:00 PM81 °FPassing clouds.5 mph89%29.89 "Hg5 mi
Weather by CustomWeather, © 2014

See weather overviewHow to use our weather pages